[[{"header":{"parameterUnit":"m.s-1","parameterCategory":1,"la1":30.2992,"la2":30.254,"lo1":-89.0895,"lo2":-89.0443,"dy":0.0025,"dx":0.0025,"nx":19,"ny":19,"refTime":"2026-03-10T03:00:00:Z","depth":0,"parameterNumber":2,"parameterNumberName":"U-component_of_WINDS"},"data":[0,0,0,-1.7614,-1.7614,-1.7614,-1.7614,-1.7623,-1.7623,0,0,0,0,0,0,0,0,0,0,0,-1.7618,-1.7618,-1.7614,-1.7614,-1.7614,-1.7614,-1.7623,-1.7623,0,0,0,0,0,0,0,0,0,0,0,-1.7618,-1.7618,-1.7618,-1.7614,-1.7614,-1.7614,-1.7623,-1.762,0,0,0,0,0,0,0,0,0,0,-1.7618,-1.7626,-1.7618,-1.7618,-1.7614,-1.7614,-1.7614,-1.762,-1.762,-1.7626,0,-1.7632,0,-1.7627,-1.7624,-1.7624,0,0,0,-1.7611,-1.7625,-1.7622,-1.7618,-1.7614,-1.7614,-1.7613,-1.762,-1.762,-1.7627,-1.7632,-1.7632,-1.7628,-1.7624,-1.7624,-1.7667,-1.7667,0,0,-1.7611,-1.762,-1.7621,-1.7622,-1.7621,-1.7613,-1.7613,-1.762,-1.7626,-1.7632,-1.7632,-1.7628,-1.7624,-1.7624,-1.7666,-1.7667,0,0,0,-1.7613,-1.762,-1.7616,-1.7622,-1.7621,-1.7613,-1.7613,-1.7626,-1.7624,-1.7632,-1.7628,-1.7624,-1.7625,-1.7666,-1.7666,-1.769,0,0,0,-1.7613,-1.7621,-1.7616,-1.7622,-1.7621,-1.7623,-1.7619,-1.7623,-1.7624,-1.7628,-1.7624,-1.7625,-1.7665,-1.7666,-1.7689,-1.77,0,0,0,-1.7616,-1.7621,-1.7623,-1.7622,-1.7622,-1.7623,-1.7621,-1.7623,-1.7621,-1.7624,-1.7625,-1.7665,-1.7666,-1.7688,-1.7698,-1.7713,0,0,0,-1.7623,-1.7644,-1.7623,-1.7646,-1.7623,-1.7638,-1.7621,-1.7632,-1.7637,-1.7624,-1.7666,-1.7666,-1.7687,-1.7696,-1.7712,-1.7727,-1.7735,0,0,-1.7655,-1.7649,-1.7661,-1.7642,-1.7663,-1.7637,-1.7662,-1.7659,-1.7651,-1.7662,-1.7663,-1.7689,-1.7698,-1.7713,-1.7775,-1.7781,0,0,0,-1.7675,-1.7684,-1.7687,-1.7692,-1.769,-1.7689,-1.7681,-1.7681,-1.7689,-1.7658,-1.7699,-1.7704,-1.7713,-1.772,-1.7725,-1.7732,-1.767,-1.767,-1.767,-1.7732,-1.7721,-1.7742,-1.7731,-1.7737,-1.7729,-1.7733,-1.773,-1.7718,-1.7728,-1.7731,-1.777,-1.7778,-1.7782,-1.7789,-1.7739,-1.7739,-1.7739,-1.7739,-1.7778,-1.7789,-1.7773,-1.7787,-1.7776,-1.7788,-1.7783,-1.7774,-1.7784,-1.7766,-1.7774,-1.7754,-1.7789,-1.7795,-1.7741,-1.7741,-1.7741,-1.774,-1.774,-1.7813,-1.7817,-1.7815,-1.7822,-1.7829,-1.7819,-1.783,-1.782,-1.7811,-1.7818,-1.782,-1.782,-1.7818,-1.782,-1.782,-1.782,-1.782,-1.782,-1.7821,-1.785,-1.7848,-1.7857,-1.7858,-1.786,-1.7863,-1.7856,-1.7859,-1.786,-1.7852,-1.7852,-1.7839,-1.7794,-1.7782,-1.7823,-1.7822,-1.7822,-1.7822,-1.7822,-1.7899,-1.7887,-1.7901,-1.7904,-1.7904,-1.7912,-1.79,-1.7907,-1.7908,-1.7914,-1.79,-1.7869,-1.7862,-1.7858,-1.7848,-1.7902,-1.7902,-1.7902,-1.7902,-1.7928,-1.7924,-1.7937,-1.7942,-1.7946,-1.7937,-1.7956,-1.7952,-1.7946,-1.7947,-1.7938,-1.7925,-1.7921,-1.7916,-1.7911,-1.7901,-1.7968,-1.7968,-1.7968,-1.7958,-1.7953,-1.797,-1.7963,-1.7964,-1.7964,-1.7982,-1.7989,-1.7981,-1.7971,-1.7947,-1.7944,-1.7923,-1.7916,-1.7904,-1.7896,-1.7879,0,0]},{"header":{"parameterUnit":"m.s-1","parameterCategory":1,"la1":30.2992,"la2":30.254,"lo1":-89.0895,"lo2":-89.0443,"dy":0.0025,"dx":0.0025,"nx":19,"ny":19,"refTime":"2026-03-10T03:00:00:Z","depth":0,"parameterNumber":3,"parameterNumberName":"V-component_of_WINDS"},"data":[0,0,0,2.8131,2.8128,2.7995,2.7995,2.7819,2.7817,0,0,0,0,0,0,0,0,0,0,0,2.8167,2.8166,2.8131,2.8128,2.7995,2.7995,2.7819,2.7817,0,0,0,0,0,0,0,0,0,0,0,2.8168,2.8166,2.8165,2.8127,2.7995,2.7995,2.782,2.7922,0,0,0,0,0,0,0,0,0,0,2.8052,2.8082,2.8167,2.8165,2.8127,2.7995,2.7994,2.7927,2.7915,2.7877,0,2.7843,0,2.7827,2.7805,2.7805,0,0,0,2.813,2.8092,2.8059,2.8164,2.8125,2.7996,2.8056,2.792,2.7908,2.7862,2.784,2.7834,2.7824,2.7804,2.7803,2.7579,2.7578,0,0,2.8137,2.8141,2.8068,2.805,2.8071,2.806,2.8051,2.7913,2.7889,2.7839,2.783,2.7822,2.7803,2.7802,2.758,2.7579,0,0,0,2.8157,2.8146,2.8117,2.8058,2.8034,2.8056,2.8046,2.7895,2.7885,2.7828,2.7819,2.7802,2.78,2.7582,2.758,2.753,0,0,0,2.8161,2.8158,2.812,2.8121,2.8037,2.7963,2.8031,2.7895,2.7879,2.782,2.7802,2.7798,2.7583,2.7581,2.7534,2.7504,0,0,0,2.8177,2.816,2.814,2.8122,2.8065,2.7965,2.7947,2.7891,2.7874,2.7805,2.7797,2.7584,2.7581,2.7537,2.751,2.7448,0,0,0,2.8194,2.8094,2.8139,2.8024,2.8066,2.7935,2.7948,2.785,2.7784,2.7801,2.7583,2.758,2.7538,2.7514,2.7452,2.7397,2.7374,0,0,2.8071,2.808,2.8012,2.8048,2.7911,2.7955,2.781,2.7745,2.7733,2.7631,2.7626,2.7532,2.7511,2.7449,2.7246,2.7228,0,0,0,2.7974,2.7926,2.7889,2.7828,2.7778,2.7732,2.769,2.7666,2.758,2.7682,2.7493,2.748,2.7443,2.7417,2.7401,2.7371,2.7568,2.7568,2.7569,2.7804,2.7798,2.7686,2.7664,2.7605,2.7564,2.7516,2.7477,2.7485,2.7441,2.741,2.7288,2.7257,2.7245,2.7213,2.738,2.738,2.738,2.738,2.7623,2.7554,2.7571,2.7469,2.7463,2.7377,2.7334,2.7344,2.7263,2.7309,2.7277,2.7329,2.7226,2.7198,2.7376,2.7376,2.7377,2.7377,2.7378,2.7511,2.7477,2.7452,2.7366,2.7301,2.7282,2.7204,2.7201,2.7196,2.7164,2.7133,2.7134,2.7135,2.715,2.7149,2.7149,2.7148,2.7148,2.7148,2.7405,2.7379,2.7315,2.7256,2.7218,2.7168,2.7128,2.709,2.7047,2.7051,2.7051,2.7064,2.7217,2.7256,2.7141,2.7142,2.7143,2.7144,2.7144,2.7224,2.7266,2.7167,2.7129,2.7061,2.6997,2.6995,2.6919,2.6888,2.685,2.6872,2.6985,2.6993,2.7005,2.7038,2.6873,2.6873,2.6873,2.6873,2.713,2.7136,2.7035,2.6976,2.6917,2.6906,2.6795,2.6764,2.6738,2.6719,2.6742,2.6785,2.6797,2.6798,2.6814,2.6844,2.6634,2.6634,2.6634,2.702,2.7019,2.6926,2.6903,2.685,2.6805,2.6701,2.6633,2.6611,2.6624,2.6704,2.6714,2.6782,2.6804,2.6818,2.6843,2.6898,0,0]}]]